Lid_Strength_Index
3 3 3 3 3 2 2 2 2 2 1 1 3 4 4 3 4 5 9 5 1 -1 -1 1 1 2 2 5 4 4 12 13 11 11 10 6 8 5 4 6 5 5 5 4 3
3 3 3 3 3 2 3 3 2 2 1 1 3 4 4 3 5 8 3 -3 -2 -1 2 3 4 4 6 6 6 8 12 11 7 7 8 7 7 6 7 7 7 6 4 3 3
3 3 3 3 3 3 3 2 2 2 1 1 2 4 4 4 6 6 -2 -1 -2 -1 1 1 3 4 7 6 7 8 11 8 7 6 6 7 7 5 8 9 7 7 6 4 4
3 3 3 3 3 3 3 3 2 2 2 1 1 3 4 5 9 2 -1 -1 -1 2 1 3 4 7 8 9 6 10 7 7 7 5 6 7 6 7 7 7 5 5 4 5 5
3 3 3 3 3 3 3 2 2 2 2 1 1 3 5 8 9 0 -1 -1 0 1 3 4 5 6 9 8 7 9 8 6 6 5 6 5 7 7 7 5 4 4 4 5 5
3 3 3 3 3 3 3 3 2 2 2 1 1 2 8 10 1 -0 0 1 1 2 3 3 5 5 7 7 8 7 7 7 6 6 6 7 8 7 7 5 5 5 5 5 5
3 3 3 3 3 3 3 3 3 2 2 1 0 2 7 9 1 1 2 1 1 2 4 2 3 5 6 8 5 6 9 7 7 6 7 6 9 9 6 5 6 5 6 5 5
3 3 3 3 3 3 3 3 3 2 2 1 0 3 10 4 1 2 2 2 1 2 2 2 4 5 6 5 7 9 9 12 8 7 6 7 13 8 6 6 7 6 5 5 5
3 3 3 4 4 4 3 3 2 1 1 0 5 6 9 2 3 2 1 3 2 2 2 1 4 6 6 9 11 10 13 12 10 6 7 9 12 8 6 6 7 6 6 5 5
3 3 3 4 4 5 5 5 2 2 1 0 2 6 6 6 5 2 2 2 3 3 4 5 6 9 9 11 15 12 12 11 12 8 8 10 10 8 7 7 7 7 6 5 5
3 3 3 4 5 5 6 6 7 7 6 9 7 5 5 5 5 4 2 3 4 7 8 6 10 12 10 9 9 9 10 10 9 8 9 10 10 9 7 7 7 7 6 6 5
3 3 4 4 5 5 7 6 5 5 8 5 5 4 5 5 6 5 2 6 7 9 7 9 11 8 7 8 9 9 10 11 9 8 9 11 11 9 8 8 7 7 7 6 5
3 4 5 5 5 7 7 5 5 5 8 6 6 6 5 5 6 8 4 6 7 9 8 11 8 6 8 8 9 10 11 11 11 9 9 10 12 11 8 7 6 6 6 5 5
4 4 5 6 7 7 7 6 5 5 11 9 8 6 6 5 8 4 4 5 8 8 8 9 7 7 9 9 10 11 9 8 10 12 16 10 18 12 10 9 8 7 6 6 5
4 4 5 6 9 7 4 7 6 7 15 7 7 5 6 7 7 7 3 7 8 8 9 9 8 9 10 9 9 10 8 9 10 12 13 12 16 13 10 11 9 8 6 6 5
4 4 6 7 8 7 6 6 7 11 14 9 7 8 9 9 8 6 5 7 6 8 9 9 7 9 9 8 8 8 10 11 13 11 16 14 14 14 11 10 9 7 6 5 5
5 5 6 5 6 5 6 7 11 14 9 9 10 9 9 10 9 6 8 10 10 12 13 10 9 8 8 11 10 10 14 16 16 16 15 13 14 14 10 8 8 8 7 6 5
6 6 6 6 6 6 7 9 14 10 10 7 11 11 10 10 11 10 11 11 11 12 14 14 13 10 8 10 11 12 13 16 17 16 16 12 17 13 8 7 7 6 6 5 5
6 6 6 5 6 6 8 13 12 10 8 8 10 12 12 10 10 11 11 11 10 11 12 13 12 8 9 9 9 12 13 12 13 14 16 14 13 9 8 8 7 7 6 6 5
8 6 5 4 4 6 10 13 11 8 8 9 11 11 13 12 11 13 11 9 9 8 9 11 12 10 8 8 9 10 11 13 14 18 18 16 15 15 11 10 8 7 7 6 6
6 6 4 3 5 7 10 12 8 7 7 8 9 9 10 10 9 11 10 9 8 8 8 11 13 11 9 11 11 10 12 13 14 13 18 18 16 11 11 9 9 8 7 6 5
7 10 5 5 9 10 10 9 8 7 7 8 7 9 9 8 9 10 10 10 7 8 10 9 13 13 12 9 8 10 11 14 16 15 14 15 16 8 9 8 8 8 6 6 5
8 8 5 6 11 11 9 8 8 8 8 8 8 7 7 9 10 9 8 6 6 8 9 8 13 15 13 11 9 11 10 12 14 13 15 16 16 8 8 8 7 7 7 6 5
8 9 7 7 8 9 10 9 9 7 6 6 7 8 9 10 9 9 8 6 6 7 4 7 13 13 14 13 11 12 10 11 12 13 14 14 14 11 10 9 8 7 6 6 6
8 9 9 10 9 9 10 8 9 9 7 7 8 8 9 11 10 10 8 8 7 5 9 10 13 13 12 10 10 10 10 11 13 13 14 12 13 10 9 8 7 6 6 6 6
11 11 11 11 9 9 10 10 9 8 7 8 8 7 8 11 10 11 9 10 10 9 10 11 12 10 13 10 11 11 10 10 11 11 11 11 12 8 7 7 7 7 6 7 6
9 9 9 9 10 12 12 10 8 7 7 6 6 8 8 8 8 9 9 9 8 10 10 11 13 14 14 12 11 13 11 11 10 10 10 12 9 8 8 7 7 7 6 6 6